Location: Cudham
(51.3000°N, 0.0667°E)
Time: 23:49:13
(UTC+00:00)

ALOS 2 - Pass Details

Date: 15 May 2026
Orbit: 630 x 632 km, 97.9° (Epoch: 8 June)

Event Time Altitude Azimuth Distance (km) Brightness Sun altitude
Exits shadow 22:53:58 33° 130° (SE) 1,060 3.3 -18.3°
Maximum altitude 22:55:38 55° 71° (ENE) 767 3.0 -18.4°
Drops below altitude 10° 22:59:57 10° 354° (N) 2,027 6.4 -18.6°
Sets 23:02:11 0° 350° (N) 2,939 7.7 -18.7°
